Showing default

TOMORROW-S6, 63225

Orbit data source: Space-Track

TOMORROW-S6, 63225 is a payload satellite owned by Tomorrow.io (US) in SSO that was launched on Sat, 15 Mar 2025 UTC via an FALCON 9 launch vehicle from the Air Force Western Test Range (AFWTR). Payload-class satellites include a variety of spacecraft equipped with specific instruments for various scientific and technological missions. These include communications satellites like Starlink; space stations such as the ISS; scientific satellites like the Hubble; Earth observation satellites from companies like Planet Labs, Umbra, and HawkEye 360; GPS; miniature CubeSats for education and research; and military/defense satellites.

Loading next visibility...
Identifier
63225, 2025-052R
Orbit
SSO
Country
Flag of USUS
Related business
Manufacturer
Blue Canyon
Mission
Operational Commercial Weather
Bus & Motor
CUBESAT 6U, Unknown motor
Mass
12 kg wet, 12 kg dry
Launch date (UTC)
2025-03-15 (1 year ago)
Launch vehicle
FALCON 9
Launch site
Air Force Western Test Range (AFWTR)
Object type
Payload
Rocket body
Debris
Shape & HBR
Box + 2 Pan, 1.0 m
Radar Cross Section
0.138 m², Medium (>0.1 m² and < 1m²)

Expand to show TLE details & history
Last TLE update: 12 hours ago

TLE from 12 hours ago
0 TOMORROW-S6
1 63225U 25052R   26175.20042539  .00003845  00000-0  16899-3 0  9994
2 63225  97.4010  67.9944 0007021 105.1793 255.0220 15.22473417 70915
Epoch: 2026-06-24T04:48Z
TLE epoch observation values (Epoch: 2026-06-24T04:48:36.753Z)
Latitude
-0.00008°
Longitude
83.48022°
Altitude
502.728 km
Speed
7.612 km/s
True Right ascension
04h 31m 58s
True Declination
0° 00' 00"
Sunlit
Object was in daylight at epoch
Visualization orbit readout
Latitude
Unknown
Longitude
Unknown
Altitude
Unknown
Speed
Unknown
Apparent Right ascension
Unknown
Apparent Declination
Unknown
Sunlit
N/A
Visualization observer readout
Local Sidereal Time
03:56:44
Azimuth
Unknown
Elevation
Unknown
Doppler factor
Unknown
Orbital elements
Apogee altitude
500.171 km
Perigee altitude
490.519 km
Semi-major axis
6,873.482 km
Eccentricity
0.0007
Inclination
97.401°
RAAN
67.9944°
Arg. of periapsis
105.1793°
True anomaly
254.9443°
Mean anomaly
255.022°
Eccentric anomaly
254.98315°
Mean motion
3.80871 °/min
Orbital period
94.52 mins
BSTAR
0.00016899
Loading maneuver chart data...
Computing Atmospheric mass density...
Loading historical data...
Loading historical data...
Loading historical data...
Loading historical data...
Loading historical data...
Loading historical data...
Loading historical data...

Documentation

Showing up to 5 results
|